Home > Weather > Mackay > Past weeks

Flag for Australia Past Weather in Mackay, Queensland, Australia — Yesterday and Last 2 Weeks

Now
70 °F

Mild.


Feels Like: 69 °F
Forecast: 60 / 70 °F
Wind: 6 mph from East

Location: Mackay Mo

Current Time: Jul 1, 2016 at 6:14:53 PM

Latest Report: Jul 1, 2016 at 4:00 PM


Visibility: N/A

Pressure: 30.06 "Hg

Humidity: 86%

Dew Point: 66 °F

Location of MackayLocation

Past Weather in Mackay — Graph

°F

Mackay Temperature Yesterday

Maximum temperature yesterday: 72 °F (at 12:00 PM)
Minimum temperature yesterday: 54 °F (at 4:00 AM)
Average temperature yesterday: 63 °F

High & Low Weather Summary for the Past Weeks

 TemperatureHumidityPressure
High83 °F (Jun 24, 1:00 PM)99% (Jun 18, 4:00 AM)30.26 "Hg (Jun 18, 4:00 AM)
Low49 °F (Jun 29, 7:00 AM)44% (Jun 28, 3:00 PM)29.84 "Hg (Jun 19, 4:00 AM)
Average66 °F83%30.02 "Hg
* Reported Jun 16 4:00 PM — Jul 1 4:00 PM, Mackay, Weather by CustomWeather, © 2016

Note: Actual official high and low records may vary slightly from our data, if they occured in-between our weather recording intervals... More about our weather records

Advertising

Mackay Weather History for the Previous 24 Hours

Scroll right to see more
 ConditionsComfort  
Time TempWeatherWind HumidityBarometerVisibility
4:00 PM
Fri, Jul 1
70 °FMild.6 mph86%30.06 "HgN/A
3:00 PM71 °FPassing clouds.7 mph85%30.05 "HgN/A
1:00 PM70 °FMild.7 mph86%30.08 "HgN/A
12:00 PM70 °FMild.6 mph86%30.11 "HgN/A
10:00 AM70 °FMild.8 mph82%30.14 "HgN/A
9:00 AM67 °FMild.6 mph80%30.15 "HgN/A
7:00 AM60 °FCool.7 mph93%30.12 "HgN/A
6:00 AM59 °FPassing clouds.8 mph94%30.11 "HgN/A
4:00 AM60 °FCool.8 mph96%30.08 "HgN/A
3:00 AM61 °FPassing clouds.8 mph95%30.07 "HgN/A
1:00 AM63 °FMild.8 mph91%30.11 "HgN/A
12:00 AM63 °FOvercast.7 mph91%30.11 "HgN/A
10:00 PM
Thu, Jun 30
65 °FMild.6 mph95%30.14 "HgN/A
9:00 PM65 °FPassing clouds.7 mph95%30.14 "HgN/A
7:00 PM67 °FMild.5 mph88%30.12 "HgN/A
6:00 PM68 °FMild.6 mph85%30.10 "HgN/A
Weather by CustomWeather, © 2016

See weather overviewHow to use our weather pages